Location: Unspecified
(51.0000°N, 12.0000°E)
Time: 03:28:13
(UTC+02:00)

OTV 5 (USA 277) - Pass Details

Date: 01 May 2019
Orbit: 310 x 325 km, 54.5° (Epoch: 08 May)

Event Time Altitude Azimuth Distance (km) Brightness Sun altitude
Rises 23:19:38 0° 293° (WNW) 2,040 ? -19.6°
Reaches altitude 10° 23:21:37 10° 296° (WNW) 1,209 ? -19.8°
Enters shadow 23:23:37 43° 316° (NW) 453 ? -19.9°
